Location: Brunembert
(50.7122°N, 1.8935°E)
Time: 03:50:09
(UTC+00:00)

S3M - Pass Details

Date: 22 April 2021
Orbit: 949 x 1004 km, 83.0° (Epoch: 06 May)

Event Time Altitude Azimuth Distance (km) Brightness Sun altitude
Exits shadow 22:05:25 45° 156° (SSE) 1,337 4.2 -22.7°
Maximum altitude 22:07:19 66° 94° (E) 1,094 4.1 -22.9°
Drops below altitude 10° 22:13:39 10° 14° (NNE) 2,788 7.0 -23.3°
Sets 22:16:12 0° 12° (NNE) 3,738 7.9 -23.5°
